Wind_Speed
14 16 17 18 20 21 22 23 23 23 21 21 19 17 15 16 16 15 15 14 14 14 14 15 17 18 20 22 21 19 19 19 18 18 18 19 19 20 21 21 22 21 22 23 23 22 22 21 24 26 26 27 27 29 30 30 30 29 29 28 28 28 29 30 29 26 24 24 26 27 28 31 33 33 32 29 26 25 24 22 21 20 21 22 22
14 16 17 17 19 20 22 23 24 24 23 23 22 19 18 18 18 17 16 15 15 15 16 17 18 17 18 19 18 17 17 17 16 16 17 18 18 18 19 21 19 16 18 20 19 20 21 21 23 25 26 26 26 28 29 29 29 28 27 28 29 29 29 31 30 28 26 24 25 27 27 31 34 34 34 31 27 26 25 23 22 21 22 22 23
15 15 15 16 17 19 20 22 23 24 24 24 23 20 18 19 19 19 18 17 16 15 15 16 18 18 17 17 17 16 17 17 17 17 16 17 17 17 17 18 14 11 13 15 16 17 19 20 21 22 24 26 26 27 28 28 28 28 27 28 29 28 30 31 30 28 27 25 25 27 28 31 34 34 34 31 27 26 25 22 21 22 23 23 23
15 15 14 15 15 16 17 18 20 23 24 24 23 20 18 19 20 21 20 19 17 16 15 15 17 18 18 18 17 17 16 16 16 16 16 16 17 16 16 15 13 11 10 11 14 15 15 16 18 20 23 26 27 27 28 29 29 28 28 29 29 29 29 30 29 28 28 27 27 28 29 32 33 34 33 30 27 27 26 22 21 22 24 24 23
17 16 16 17 17 17 18 19 19 21 22 24 24 22 20 19 20 23 23 22 20 19 17 16 15 17 17 18 19 18 16 15 14 15 15 15 15 15 14 13 11 10 10 11 13 13 12 13 15 18 21 24 27 27 26 27 28 28 28 29 29 29 28 29 29 30 30 30 29 28 30 32 34 35 33 30 29 29 28 25 23 23 24 24 22
20 21 22 24 23 22 23 22 21 22 23 24 25 24 22 20 22 24 25 24 23 22 20 19 18 17 16 16 18 19 18 15 14 15 15 14 14 14 13 11 10 9 9 11 12 12 11 11 13 16 18 21 24 25 24 25 26 27 29 30 29 28 29 30 31 32 32 31 29 29 31 33 34 36 34 31 32 32 30 27 24 23 24 24 22
25 26 26 27 27 26 26 26 24 23 24 25 26 26 24 23 24 25 25 25 25 25 23 22 21 20 19 17 17 19 19 18 17 17 15 15 14 13 13 12 12 11 9 11 11 10 10 11 13 15 17 19 20 20 21 22 23 25 27 29 29 29 30 30 31 32 32 32 30 30 32 33 35 36 35 32 31 31 31 29 27 26 25 24 23
26 25 25 28 29 29 30 31 29 27 26 25 26 26 24 24 25 25 25 25 26 26 25 24 23 22 21 20 19 20 20 21 21 20 18 16 15 14 14 13 13 11 9 9 10 9 9 10 12 14 16 17 18 17 18 20 22 24 26 27 27 28 29 30 30 31 32 33 32 31 32 33 35 36 35 32 32 33 33 31 29 28 28 25 22
23 22 23 26 27 29 31 33 33 32 31 31 30 29 27 26 25 25 25 25 25 26 25 24 24 24 23 22 22 21 21 22 23 23 21 20 18 17 15 13 12 12 10 9 8 8 9 10 11 13 15 16 17 17 16 18 21 23 26 28 29 27 27 28 30 32 33 33 32 31 32 35 37 38 37 36 35 37 36 32 30 28 28 26 22
20 20 21 22 24 26 29 31 32 33 34 35 35 35 33 31 30 28 26 25 25 26 26 25 24 25 26 25 24 24 24 24 25 24 23 22 22 20 17 14 13 12 11 11 10 9 9 10 10 12 15 15 16 16 15 17 21 23 26 29 30 28 27 27 29 32 34 34 33 33 33 36 39 39 39 38 37 37 36 34 33 30 28 27 24
18 19 19 20 22 25 27 29 30 31 33 34 34 35 35 35 35 34 33 30 27 26 28 28 27 27 27 27 27 27 27 27 26 24 23 23 22 22 20 17 14 13 12 12 13 11 9 10 12 12 14 16 16 16 16 17 20 22 24 27 27 27 28 28 29 31 33 34 35 35 34 36 37 39 40 39 37 35 34 34 34 34 32 30 28
19 21 21 21 23 25 26 27 27 28 30 31 32 32 33 35 36 36 37 36 32 28 29 31 32 31 30 29 28 28 28 28 28 26 24 23 22 21 20 18 16 14 13 14 15 13 10 12 13 14 14 15 16 15 14 15 16 19 21 23 25 27 28 28 28 29 31 34 36 37 36 35 35 38 41 40 38 34 31 33 36 36 35 32 31
22 24 24 23 24 25 26 26 26 26 26 27 28 28 30 32 33 35 37 38 37 34 32 32 34 36 35 33 31 30 29 29 29 28 26 24 22 21 19 18 16 14 13 12 12 12 12 13 14 14 14 14 15 14 13 12 14 17 18 20 23 26 27 25 24 24 27 31 35 36 35 34 35 38 40 40 39 36 31 33 37 37 35 34 32
22 24 25 24 24 25 26 27 27 26 25 25 25 26 27 28 30 32 34 36 38 37 35 34 36 38 38 37 36 34 32 31 30 29 27 26 24 21 18 16 14 13 12 10 9 9 11 13 14 14 14 13 13 13 12 11 12 15 18 20 22 23 24 24 23 23 24 27 31 33 33 33 33 36 37 37 39 39 35 34 38 37 34 31 29
21 24 25 25 24 25 26 26 26 27 27 26 28 28 26 26 28 30 31 34 37 36 34 35 37 38 38 39 39 38 37 35 32 31 29 28 26 23 19 15 11 10 10 9 8 8 10 11 13 14 14 13 12 12 11 12 12 13 16 19 20 20 22 24 24 24 24 26 30 31 32 33 34 35 35 34 37 39 34 32 35 36 31 30 30
20 23 25 25 24 23 23 24 26 28 28 28 31 33 31 28 27 27 29 31 34 34 33 34 36 38 39 40 40 40 39 39 37 34 32 30 28 25 23 19 13 10 9 8 8 9 10 12 13 14 13 13 13 13 13 12 14 14 14 17 19 20 22 23 24 26 26 26 28 30 31 33 34 34 32 32 35 36 30 29 34 35 33 35 35
20 22 23 24 23 22 22 24 26 27 28 29 30 33 35 32 28 26 27 29 31 31 32 33 35 36 37 39 40 40 39 39 39 38 36 33 31 29 27 24 19 14 10 8 7 8 9 11 13 14 14 13 14 14 14 14 16 16 16 18 19 20 21 22 24 26 27 26 26 28 31 33 34 33 30 29 33 33 30 32 37 36 35 37 36
18 19 21 22 22 22 23 24 26 27 28 30 30 32 35 35 32 28 27 28 29 28 29 32 34 33 34 37 38 39 39 39 39 39 39 37 34 32 30 28 25 22 17 12 10 9 9 9 10 13 14 14 14 14 14 16 18 19 19 19 20 20 20 23 26 27 27 28 28 30 33 34 33 33 32 30 31 31 31 34 36 34 33 35 35
16 17 20 21 22 23 23 24 25 26 27 29 30 31 33 35 35 33 31 30 30 27 26 28 32 32 33 35 35 36 37 38 39 39 39 38 36 34 33 31 30 28 25 20 16 13 11 10 9 10 11 13 14 14 15 15 17 18 18 20 21 21 21 24 27 29 31 32 31 32 34 33 33 34 33 32 32 31 30 33 36 37 36 34 33
15 16 20 22 21 22 24 25 26 26 25 27 29 30 32 35 36 35 35 35 34 30 26 26 30 32 34 34 32 33 35 36 37 38 38 37 37 36 35 34 34 33 30 26 23 20 17 14 11 10 11 11 11 12 13 14 14 15 17 20 22 22 21 22 24 28 31 31 31 30 28 27 31 34 33 32 34 33 31 31 34 39 42 40 35
14 16 20 22 21 21 23 26 26 25 23 24 27 30 31 34 36 36 36 37 37 36 32 30 32 35 37 35 32 31 32 34 34 35 36 36 35 35 35 35 35 34 32 30 29 28 26 23 18 15 14 13 12 10 11 13 15 15 17 20 22 22 21 20 21 25 27 27 29 29 25 23 28 32 32 32 32 31 31 32 34 37 40 40 37
16 17 19 21 21 20 21 24 25 24 24 25 28 30 31 33 35 36 37 37 37 38 37 35 36 38 39 39 36 31 29 30 32 32 33 35 34 33 32 31 31 32 33 33 33 32 32 30 27 23 21 18 15 11 10 12 15 16 16 18 21 22 19 17 18 22 23 22 24 27 26 25 27 29 31 31 30 28 31 33 32 32 34 35 34
17 17 18 20 21 19 18 20 23 24 26 27 28 29 30 32 34 35 37 37 37 38 39 38 38 40 41 42 41 36 29 26 28 29 30 33 33 32 31 29 28 28 29 30 31 32 32 31 29 26 24 21 19 15 12 11 13 16 16 18 21 21 17 15 17 19 20 19 20 21 23 25 27 27 29 30 30 30 31 29 25 25 30 32 29
15 16 16 18 19 19 18 16 18 23 27 27 28 29 30 32 34 35 36 37 37 37 39 39 40 42 44 45 45 42 32 24 24 26 27 29 32 32 32 31 28 26 25 25 26 27 28 29 28 26 24 21 19 16 13 11 12 14 17 19 22 19 14 13 15 16 17 17 18 19 21 22 24 25 25 25 26 26 27 26 22 19 24 28 27
14 14 14 15 16 18 17 14 14 20 25 25 26 28 30 31 33 34 35 36 36 37 38 40 40 41 44 46 47 45 36 25 22 24 25 26 29 29 30 31 31 30 28 26 24 23 21 23 25 25 24 22 19 15 11 7 6 9 15 20 23 20 16 14 16 17 18 18 18 19 20 19 19 19 19 18 19 19 19 19 17 15 18 23 26
13 12 12 14 15 15 16 15 14 18 23 23 23 26 29 30 32 33 34 34 36 36 37 39 40 41 44 45 46 46 39 28 23 24 25 26 27 26 27 30 31 32 31 29 27 24 21 19 20 22 23 22 20 16 13 9 6 1 10 18 21 22 22 21 20 20 20 20 20 20 19 17 17 17 16 15 16 15 14 14 15 15 17 20 23
14 14 11 12 14 14 14 16 16 17 19 21 22 24 27 29 30 32 32 33 35 35 36 38 39 40 43 45 46 46 41 31 26 26 27 27 26 24 25 28 30 31 32 30 28 25 22 19 16 16 16 17 17 16 14 12 9 7 6 12 17 20 22 24 25 24 23 23 22 21 20 19 18 18 17 17 17 16 14 14 16 19 19 20 22
13 14 13 13 14 14 14 15 16 17 17 19 21 23 26 28 28 29 31 32 33 34 34 35 37 38 41 44 46 46 40 32 28 27 28 27 25 22 22 26 28 30 30 30 27 25 23 20 18 16 15 14 14 14 14 14 13 12 11 11 13 15 17 20 23 23 23 23 23 22 22 21 20 19 18 18 18 17 16 16 18 20 19 19 21
10 10 10 11 12 13 14 14 15 16 17 18 20 21 23 26 26 27 28 29 31 32 32 33 35 36 38 41 45 45 38 30 26 25 25 24 23 20 20 23 26 28 28 27 26 26 26 25 24 24 22 20 19 17 16 14 13 12 12 12 12 13 14 15 17 19 21 21 22 22 22 21 22 22 21 21 20 20 19 19 19 19 18 18 20
13 10 8 9 10 11 13 13 13 14 17 18 19 19 21 23 23 24 25 27 28 30 30 31 34 35 35 39 42 41 34 25 21 21 22 22 21 19 18 20 23 26 27 26 25 26 28 27 27 27 26 25 24 23 20 17 14 12 11 10 10 10 10 12 14 16 18 19 22 23 23 24 25 25 25 25 25 25 24 23 22 21 21 22 24
11 11 9 9 9 11 14 13 11 12 15 16 17 18 20 20 20 21 23 24 27 28 27 29 32 33 34 38 40 37 33 27 20 18 21 21 19 17 17 19 22 25 27 28 27 27 28 28 27 27 26 25 25 24 22 20 17 15 13 11 10 9 8 9 10 11 12 13 16 20 23 25 27 27 26 24 23 22 22 22 21 21 21 22 23
7 10 12 10 6 8 14 14 11 11 13 13 14 17 18 18 19 20 20 23 25 26 25 26 30 30 32 36 38 35 35 33 23 18 19 20 17 15 15 17 20 24 27 29 30 30 29 28 27 27 26 25 24 23 22 20 19 17 15 15 14 12 10 9 8 7 7 9 12 16 20 22 23 23 21 18 17 18 19 19 20 19 18 18 18
5 9 15 14 7 7 11 12 10 12 13 13 14 15 16 17 18 18 19 21 24 25 22 23 27 28 30 34 36 33 34 36 28 19 18 19 17 15 15 17 19 22 24 28 31 30 29 27 26 26 26 25 24 23 22 21 20 19 18 18 18 16 15 12 10 9 9 9 10 12 14 14 15 14 13 11 12 15 18 20 20 19 18 17 17
6 9 16 17 10 8 10 9 9 13 15 14 14 14 15 16 16 17 18 20 23 24 22 21 24 26 28 32 34 31 32 36 32 22 17 16 17 16 15 15 17 20 22 26 29 28 27 26 26 25 25 24 23 22 22 22 21 21 20 20 20 19 18 17 16 15 15 15 14 13 13 13 12 12 13 13 14 16 18 19 19 18 19 19 19
8 12 16 14 9 10 10 9 9 13 14 14 14 14 15 16 16 16 18 19 22 24 22 20 22 24 26 30 32 30 30 34 35 29 21 15 14 15 14 14 17 21 23 24 25 25 24 24 26 27 26 25 24 24 24 23 23 22 22 23 23 22 22 22 22 21 20 20 19 19 17 17 16 16 16 16 17 18 20 19 19 19 19 19 19
8 13 15 11 9 9 9 9 10 13 13 13 14 15 14 14 15 16 17 18 20 21 19 19 21 23 24 28 30 29 29 31 34 35 30 21 13 12 14 17 19 22 23 22 20 21 22 22 24 27 27 25 25 25 25 25 25 25 24 24 24 24 24 24 23 23 22 21 21 20 19 18 17 16 17 18 18 18 19 18 18 17 16 17 17
6 9 11 10 8 7 7 8 11 12 11 10 13 15 15 14 15 16 16 17 19 18 17 19 22 23 24 27 29 27 27 29 31 34 34 29 19 13 14 16 18 19 21 19 17 18 20 21 22 23 24 24 24 23 23 23 24 24 24 23 22 22 21 22 22 21 21 20 19 19 20 20 19 17 17 17 17 17 17 16 15 15 14 14 14
5 7 8 8 8 9 8 8 8 8 8 10 14 17 16 13 14 16 17 17 17 18 18 20 22 23 23 25 27 25 25 27 29 32 34 33 27 20 16 16 17 18 18 17 17 18 19 20 20 20 21 22 22 22 23 22 21 21 20 20 20 20 19 20 20 20 19 18 17 16 16 17 18 18 18 17 15 16 17 16 15 13 12 11 11
4 5 7 8 9 10 11 9 6 5 6 10 16 18 15 12 13 16 16 14 15 19 20 20 20 21 21 23 25 25 24 26 29 31 31 32 29 24 18 16 17 17 16 15 16 16 15 16 16 17 17 18 18 19 20 22 22 21 19 17 17 18 18 18 18 19 19 18 18 17 16 14 14 14 15 15 14 14 15 15 14 13 12 11 11
2 4 7 8 8 9 11 10 8 6 7 11 16 16 14 13 14 15 15 13 15 18 20 20 20 20 19 20 22 24 24 25 27 28 29 29 29 26 22 18 16 16 15 15 14 13 13 13 13 13 15 17 16 16 16 16 18 21 21 18 17 17 16 16 15 16 17 18 17 17 17 15 13 12 11 11 11 11 11 11 12 12 12 12 12
5 6 8 8 8 8 9 9 9 9 10 13 15 13 13 14 14 13 13 14 15 17 18 19 20 20 18 17 19 21 21 22 24 26 27 27 27 27 25 21 17 14 14 14 13 11 11 11 10 10 13 14 14 15 14 13 13 15 18 19 19 18 17 16 15 13 13 14 14 14 14 13 12 11 10 10 10 10 9 10 10 11 12 12 12
6 8 7 7 7 7 7 8 9 9 10 13 13 11 11 13 13 12 13 13 14 16 17 17 18 20 19 17 17 17 18 20 22 24 25 25 24 25 26 24 20 16 14 12 11 9 8 8 7 8 10 11 11 13 15 14 13 12 13 14 15 15 15 15 14 13 11 11 11 11 11 11 10 8 8 8 8 8 9 9 9 11 12 12 12
6 6 6 6 7 6 6 7 8 8 9 12 12 10 10 12 13 13 14 12 12 14 17 17 17 19 19 18 16 15 15 17 19 22 23 24 23 23 23 24 22 19 16 14 11 8 7 7 6 6 7 8 8 11 13 13 12 12 11 11 10 10 11 11 11 10 10 8 8 8 9 9 8 7 8 7 7 6 7 6 7 9 11 11 11
5 5 5 5 7 6 5 6 8 8 9 12 11 9 11 13 13 13 14 13 12 13 15 16 16 17 17 17 17 16 15 16 18 19 20 22 22 21 22 22 21 20 19 19 16 13 11 10 8 6 5 5 5 6 8 9 10 10 11 10 9 8 8 8 7 7 8 8 6 6 8 7 6 6 7 7 6 6 5 5 5 6 8 9 9
4 5 4 5 6 5 5 5 7 7 9 10 9 10 12 14 12 12 14 14 13 12 14 15 15 15 15 16 18 17 16 16 17 17 18 20 20 20 21 20 19 17 19 20 20 19 19 16 13 11 8 6 4 3 3 5 7 8 9 9 10 9 9 8 6 5 6 6 5 4 5 5 4 4 5 6 6 4 3 3 3 3 4 7 9
4 4 3 4 5 5 5 5 6 7 8 8 8 10 11 12 11 12 14 15 13 13 14 14 12 12 14 16 16 16 15 15 15 16 16 18 19 19 20 19 17 16 17 18 18 19 21 20 19 17 15 10 6 3 2 4 6 8 8 9 9 10 10 9 7 6 5 4 2 3 3 3 2 2 4 5 3 2 2 2 2 3 3 4 7
4 2 2 4 4 3 3 4 5 7 8 8 9 9 9 9 10 11 11 12 12 13 15 14 12 12 14 15 14 13 14 14 14 15 16 16 17 18 19 18 16 15 16 16 16 17 19 19 19 20 19 14 8 4 4 4 4 5 7 8 8 9 9 9 7 5 4 3 2 1 1 2 1 2 3 3 2 2 4 5 5 4 5 5 5
3 2 2 4 4 1 1 3 5 6 7 8 8 8 8 9 10 10 10 11 13 13 13 13 13 14 14 12 11 12 13 13 13 14 15 15 14 15 17 18 16 15 14 14 14 15 16 16 16 18 18 15 12 11 12 12 8 5 6 8 8 9 10 10 7 4 1 0 2 3 2 1 1 2 1 2 3 3 4 5 5 5 4 5 4
4 4 3 5 5 3 3 4 5 5 5 6 7 8 9 9 9 9 9 12 13 12 12 13 14 14 13 12 12 13 12 12 13 14 14 13 12 13 16 17 16 14 13 13 13 13 14 14 15 15 15 14 14 14 15 16 15 12 12 12 11 10 9 8 5 2 1 1 2 4 5 5 5 4 4 4 4 5 5 4 4 5 3 3 2
6 5 6 6 4 3 3 4 4 4 6 8 9 9 10 10 10 10 10 11 12 12 12 11 11 12 12 12 13 12 11 11 12 13 13 12 12 13 15 16 15 12 11 11 12 13 13 12 13 13 13 14 14 14 13 15 17 18 18 15 11 8 7 5 2 1 1 3 5 6 8 8 7 5 3 2 3 7 9 7 5 4 3 3 2
5 5 6 5 3 3 5 6 6 6 8 9 10 10 10 10 11 12 12 10 10 11 11 8 8 11 13 13 13 12 11 11 12 13 12 13 13 13 14 14 13 11 10 11 11 12 12 12 11 11 12 13 14 14 14 16 18 19 19 15 10 6 4 2 0 1 1 2 4 6 8 8 7 3 1 3 5 8 11 9 6 5 3 2 3
Wind_Direction
31 37 40 35 33 35 31 24 21 20 21 25 29 29 22 12 6 3 358 354 353 352 348 340 334 331 334 339 340 343 351 350 344 337 326 320 319 315 309 304 297 286 272 261 254 249 246 244 244 242 239 238 240 242 241 238 236 234 233 234 235 232 228 230 233 232 228 226 223 218 211 209 212 213 211 208 205 210 220 227 229 228 222 216 211
38 47 46 41 41 40 34 28 23 21 22 26 28 31 28 18 11 7 4 3 360 355 351 348 345 343 345 346 343 345 349 347 342 339 330 322 320 317 311 306 300 288 269 257 251 248 244 241 242 243 240 238 240 242 243 243 242 238 234 234 234 231 227 227 229 230 230 226 219 217 214 209 210 212 210 208 206 209 217 222 223 224 223 218 212
44 52 49 47 49 46 40 35 29 22 22 24 26 30 30 23 18 13 11 10 7 1 357 353 348 347 350 350 345 344 347 345 341 339 336 330 325 321 316 308 297 281 264 256 257 254 247 243 245 247 244 240 240 243 244 243 243 242 237 234 233 229 224 225 226 226 228 225 215 211 210 208 209 211 209 205 205 210 217 224 222 220 221 219 214
41 45 47 49 50 47 42 39 34 27 21 20 23 31 34 30 25 22 19 16 13 10 6 358 351 349 350 349 344 341 342 343 341 337 335 334 331 329 326 315 298 284 274 268 269 267 259 254 253 253 250 245 245 246 246 245 241 239 237 233 230 227 221 219 221 224 226 223 216 210 208 207 206 206 204 199 203 215 222 226 225 221 221 217 212
34 37 42 44 43 42 38 35 35 31 24 22 25 30 35 34 31 29 27 23 20 16 11 6 359 354 351 346 341 338 337 340 340 336 334 333 331 326 324 321 306 292 288 284 280 275 269 262 258 257 254 252 250 246 247 248 244 240 237 232 229 226 220 217 219 223 224 223 221 214 209 208 204 202 203 199 201 213 222 227 228 224 220 216 211
38 43 42 39 39 39 35 32 34 33 30 29 28 29 33 35 32 31 31 29 26 22 16 11 7 2 355 347 338 333 333 336 338 337 334 333 332 324 316 314 313 308 302 295 288 281 276 271 265 262 259 258 255 250 249 250 246 242 237 231 228 225 222 220 221 223 223 224 224 217 209 207 202 200 204 201 201 208 214 219 224 224 221 217 213
46 46 40 36 38 39 34 30 33 35 35 35 31 28 31 33 30 27 28 29 28 27 23 18 14 9 4 357 345 334 330 327 328 331 332 333 333 327 315 307 306 312 312 302 294 285 276 272 271 271 268 266 265 260 256 250 244 245 241 231 227 226 224 222 221 221 219 218 222 220 213 207 202 202 205 202 203 210 213 212 213 217 220 220 218
48 46 40 36 36 35 32 29 30 33 36 37 33 29 31 34 31 27 25 25 25 25 25 23 21 16 11 6 358 347 336 328 326 326 326 328 331 328 321 311 303 303 303 301 301 295 282 275 276 279 277 275 275 270 261 250 244 246 243 235 230 229 225 221 220 219 216 214 217 218 215 209 203 203 204 202 202 209 214 215 215 214 216 217 219
52 49 45 42 38 34 32 30 30 31 32 33 31 30 31 33 32 29 25 23 21 19 19 19 19 18 16 12 6 358 350 346 345 339 329 325 326 326 324 316 305 300 295 294 299 298 291 286 282 280 280 279 277 273 264 252 247 248 247 240 233 229 224 220 218 216 212 212 214 215 213 211 205 202 203 204 204 205 209 216 221 219 217 214 215
54 50 49 51 47 39 34 32 31 31 30 29 30 30 29 29 28 28 27 25 22 18 14 12 13 15 16 15 11 7 3 0 357 350 339 330 324 323 323 320 312 306 304 303 300 297 295 294 291 285 283 281 276 271 262 252 250 252 252 246 237 229 224 221 220 217 212 210 212 213 211 210 208 205 204 207 208 205 206 213 220 220 214 210 212
50 45 47 54 56 50 42 37 35 34 31 30 30 29 28 26 25 24 23 22 21 19 15 12 10 10 12 13 12 11 10 6 360 353 345 335 328 324 323 322 317 313 310 304 298 297 304 307 306 301 295 290 282 270 258 251 250 252 253 250 243 236 229 224 220 218 215 212 212 213 213 212 210 207 204 206 209 209 209 212 216 217 211 208 211
44 42 47 55 59 56 49 43 40 38 36 33 31 31 29 25 22 20 18 17 18 20 19 15 12 10 9 11 10 10 10 8 2 356 349 341 334 329 326 324 321 318 313 306 301 304 310 311 308 307 304 300 291 278 261 250 250 253 251 246 243 241 236 231 225 218 216 215 214 216 217 216 214 209 206 208 210 211 212 212 213 213 210 209 213
42 41 48 55 59 56 50 44 40 38 38 36 32 33 34 28 22 18 16 15 15 18 21 20 17 14 12 12 11 10 11 10 6 2 357 350 343 336 330 328 328 326 321 313 308 306 302 298 298 301 305 304 299 292 275 253 249 251 244 234 235 240 239 236 233 228 223 221 219 219 220 220 217 213 211 212 211 209 213 216 212 209 208 210 214
42 41 44 50 55 54 49 45 39 34 33 31 30 34 39 36 28 19 15 14 14 15 20 23 22 18 16 15 13 11 12 12 11 8 5 1 355 348 340 333 332 332 326 316 312 306 295 291 292 293 294 295 296 295 283 267 257 248 234 225 230 237 236 234 234 232 229 227 225 224 224 223 220 217 214 214 212 210 213 218 215 209 208 212 215
45 42 42 48 54 52 48 44 39 33 30 30 32 34 38 41 36 25 17 14 13 15 20 23 23 20 18 16 15 13 11 10 11 11 10 8 5 2 356 349 342 335 329 320 310 298 289 286 287 287 285 284 285 283 278 276 270 254 237 230 231 231 229 229 229 226 224 225 226 228 229 225 222 219 216 215 213 212 217 224 219 212 210 213 215
50 45 44 47 50 48 46 44 39 35 33 32 34 33 34 38 38 32 23 15 13 17 22 23 23 21 19 17 16 14 11 9 9 11 11 11 10 11 10 7 2 348 337 330 315 298 287 281 279 279 280 281 279 273 266 267 268 259 248 241 235 229 228 228 226 223 223 224 225 227 227 224 221 218 214 212 210 211 219 223 214 208 209 211 212
55 48 43 43 43 45 47 46 41 37 35 33 31 30 30 33 36 35 28 17 14 19 22 20 19 19 18 15 15 15 14 11 9 8 9 10 11 14 16 16 15 9 358 343 328 312 299 288 279 275 275 276 276 272 262 257 260 256 250 246 242 235 230 227 223 221 220 221 221 222 220 219 218 216 213 212 212 212 214 211 204 203 208 210 209
52 44 39 38 40 43 46 45 42 39 36 33 30 27 27 29 33 35 31 22 18 23 24 18 16 17 17 14 14 15 16 14 12 10 9 9 10 13 15 17 18 17 13 3 347 331 320 307 288 277 274 271 269 268 260 253 252 251 247 246 246 241 232 223 219 216 217 218 217 217 217 215 214 215 215 216 215 213 212 211 208 207 208 207 207
47 43 40 39 40 40 40 41 42 41 36 32 30 27 24 27 30 32 32 27 25 30 30 21 16 16 15 12 13 16 16 15 14 12 10 9 10 12 14 16 18 18 16 13 5 351 337 325 302 284 279 272 267 267 264 257 252 250 246 244 244 244 238 229 222 216 216 217 216 217 218 215 215 217 218 219 218 213 212 215 217 215 211 208 209
54 49 41 39 39 38 39 41 44 44 38 31 29 28 25 26 27 28 29 28 28 31 32 24 18 17 14 12 13 16 17 14 14 13 12 11 12 11 12 14 16 16 16 17 15 9 360 348 330 307 293 282 272 266 264 260 252 245 243 245 247 248 246 240 232 224 220 217 217 220 219 214 215 218 219 221 219 211 207 211 214 212 211 212 215
62 51 40 37 38 39 39 40 42 45 41 32 30 30 27 26 26 26 26 26 25 26 28 26 22 20 19 16 15 17 17 15 13 12 12 13 13 13 12 12 12 13 15 16 17 17 13 8 359 344 327 312 295 274 258 254 246 238 239 245 249 251 250 246 235 226 221 217 216 218 216 210 212 214 215 218 218 214 212 213 212 210 210 214 218
65 49 39 38 40 40 37 35 37 41 39 33 30 29 26 24 25 25 23 24 24 24 24 23 21 20 19 19 17 15 16 17 14 10 11 14 16 16 14 10 7 9 12 14 16 16 14 12 9 2 353 341 325 303 273 252 239 231 234 241 243 246 247 239 227 223 221 218 217 217 216 213 212 212 213 216 218 219 219 220 219 215 214 218 219
65 50 39 39 40 38 33 31 33 35 33 29 27 27 25 23 23 22 21 21 22 22 21 20 18 17 15 15 15 13 13 16 16 12 10 14 17 18 18 14 9 7 9 12 14 14 13 11 8 3 358 353 346 334 313 282 251 232 226 228 233 236 233 222 220 223 221 217 215 215 214 212 212 215 217 218 220 223 225 228 229 218 215 219 219
70 57 45 43 43 39 32 28 30 31 28 24 24 26 25 22 21 21 20 19 19 20 19 17 16 15 13 11 11 11 11 14 16 13 11 12 14 16 19 19 16 13 12 9 8 10 11 11 8 4 360 358 355 347 333 308 272 242 224 220 224 226 221 215 216 215 207 201 203 205 206 207 211 218 222 222 222 224 227 232 233 220 214 217 213
74 68 56 51 48 43 37 30 28 29 25 20 21 25 23 21 20 19 18 18 18 17 17 15 13 14 13 10 9 9 10 12 13 12 11 10 10 12 16 19 20 20 18 14 8 4 3 4 6 6 6 5 0 353 349 337 283 225 201 200 204 202 196 201 210 207 199 196 196 195 195 197 202 209 214 214 216 218 219 222 221 212 210 207 199
58 61 65 59 51 46 43 37 30 26 23 19 19 23 23 21 19 18 17 18 17 16 14 13 12 12 11 10 8 7 9 12 12 10 9 9 10 11 14 18 20 21 20 17 12 6 1 356 357 2 8 12 12 11 14 14 358 196 165 167 174 174 171 176 188 193 190 189 189 184 181 181 181 183 186 189 193 197 199 196 187 182 190 193 183
46 44 54 55 44 39 42 40 30 22 21 21 20 22 23 20 18 17 18 17 16 15 13 11 11 11 9 9 7 5 6 10 11 8 8 9 11 13 15 17 20 21 20 18 14 12 11 6 0 2 8 14 20 26 32 35 32 40 89 125 143 154 157 160 166 172 173 174 174 169 166 167 165 162 164 168 167 166 169 173 168 163 168 176 171
50 44 43 44 39 31 34 40 34 25 24 24 23 23 23 20 17 16 17 16 15 15 13 11 10 10 8 8 6 3 4 7 9 7 5 6 10 13 14 18 21 21 19 17 16 16 18 19 20 22 23 23 26 30 35 41 49 55 61 78 102 122 136 143 145 147 150 156 159 156 154 154 152 150 151 154 153 149 150 155 153 149 154 164 157
48 49 44 41 36 24 22 32 36 31 25 21 20 22 22 19 17 15 15 15 14 13 12 10 9 8 8 8 5 3 3 4 5 3 1 5 11 13 14 20 25 25 21 16 15 18 22 24 26 28 31 32 33 33 34 37 46 57 65 72 83 97 114 125 125 123 126 133 136 136 137 138 137 135 133 129 128 129 134 140 141 140 146 153 144
35 49 52 41 31 18 12 20 31 31 24 19 19 21 20 17 16 16 15 14 12 12 11 9 7 6 7 7 6 5 4 2 360 359 1 8 14 15 15 20 26 27 25 19 16 21 25 28 29 30 30 33 35 35 34 35 39 48 58 67 77 91 106 117 120 121 125 127 127 126 128 129 128 126 121 115 113 116 119 121 124 127 130 131 128
19 36 42 35 34 24 14 14 20 24 25 25 23 21 20 19 17 17 15 11 11 11 9 7 5 4 4 5 5 7 8 6 2 1 4 10 15 17 20 24 27 28 25 19 17 22 25 27 30 32 32 34 37 38 38 38 41 46 53 62 70 79 94 108 119 129 137 141 139 135 133 131 129 127 121 113 108 110 111 112 115 119 121 122 122
7 26 29 27 36 35 24 20 18 17 19 22 17 15 19 20 18 16 12 8 9 10 8 5 3 2 3 3 4 6 10 10 9 9 8 9 14 21 25 28 31 31 24 17 18 22 24 26 31 34 35 37 39 41 43 44 46 50 55 62 67 72 80 88 98 115 131 142 146 145 143 140 137 133 128 119 111 110 112 115 117 117 117 120 121
2 12 16 14 16 32 28 24 20 15 13 13 12 13 16 15 13 13 10 5 6 10 9 4 0 360 2 3 3 7 11 11 13 17 14 11 15 26 33 38 40 37 29 21 20 22 25 29 34 36 38 40 41 42 45 48 51 54 57 62 65 69 75 83 91 99 106 116 131 143 149 153 154 153 148 143 137 132 128 126 123 120 117 116 116
12 3 7 11 23 47 41 29 20 16 15 15 15 14 12 11 12 13 8 3 5 10 9 2 359 0 360 0 4 10 12 12 15 18 13 11 14 19 27 37 41 41 36 27 23 23 26 32 37 38 38 40 42 44 47 51 53 57 60 64 67 69 72 77 82 86 91 97 105 114 123 131 141 148 149 147 147 143 134 127 122 120 120 119 119
29 10 4 13 43 62 49 28 10 8 11 15 16 13 11 12 14 14 8 3 4 8 8 2 0 1 359 0 7 13 12 12 16 17 13 8 7 7 15 30 41 45 42 32 25 26 29 34 38 39 40 44 48 50 52 54 57 60 65 68 70 71 73 75 76 77 80 84 87 91 97 102 107 113 121 127 131 132 128 125 124 124 125 127 128
21 11 10 29 67 68 45 19 3 3 8 12 14 14 14 14 13 11 6 1 2 6 8 4 0 359 359 3 10 14 13 11 13 15 15 13 6 10 27 38 43 42 36 29 27 30 31 35 39 39 41 45 49 53 57 59 61 63 68 73 77 78 79 79 79 78 79 80 82 84 87 90 92 96 102 108 114 119 124 128 129 126 125 129 133
1 12 24 45 61 51 21 358 357 6 13 16 18 17 13 10 9 7 2 1 4 7 5 360 355 354 359 6 11 13 13 11 10 11 15 19 22 30 37 36 34 31 25 24 34 40 38 37 39 39 41 44 46 51 58 62 63 64 66 71 76 79 80 80 79 79 78 77 79 81 84 87 91 95 99 104 111 116 120 124 127 125 123 125 129
6 21 27 26 21 13 359 348 355 11 19 21 20 15 8 5 9 8 3 3 5 4 359 354 352 354 360 7 10 10 11 10 8 8 13 20 28 39 41 33 30 30 26 29 45 52 47 42 39 38 39 41 41 46 52 54 57 60 61 63 67 71 73 74 73 72 72 72 73 76 79 84 89 93 98 104 111 117 120 120 119 121 122 119 116
3 31 23 10 9 15 16 16 24 30 22 15 12 9 8 13 13 8 7 6 3 360 357 355 355 358 1 4 6 8 9 9 7 7 10 16 24 33 39 37 33 30 26 29 41 50 51 49 44 39 37 35 34 37 42 44 47 51 53 57 62 66 69 70 68 66 66 68 70 72 75 81 89 94 99 104 108 114 121 120 114 113 118 118 110
24 55 31 15 17 25 23 21 23 20 8 4 2 4 14 24 17 9 9 7 360 357 357 355 356 0 3 3 2 4 8 9 6 5 8 13 18 23 29 34 35 31 27 27 30 35 45 52 49 39 36 35 32 28 28 32 39 46 52 58 63 66 67 66 64 66 67 67 68 71 72 74 79 86 94 102 108 115 124 126 120 117 119 123 119
82 68 36 15 16 20 13 10 16 15 1 353 353 1 18 25 18 9 6 2 357 357 358 356 357 2 6 4 360 1 5 6 3 3 6 10 14 17 22 27 29 25 25 29 28 27 32 36 31 25 30 37 38 36 32 30 34 43 50 53 55 59 62 60 60 66 71 71 73 76 74 69 68 75 85 94 103 112 123 128 124 117 117 124 128
89 64 34 10 4 5 1 4 11 4 348 345 349 1 16 19 14 8 5 1 357 358 359 358 358 2 6 5 0 359 2 2 1 1 4 8 10 13 18 24 28 26 24 29 32 29 24 15 6 13 25 31 39 47 50 47 46 47 47 43 44 52 62 68 70 72 76 80 85 86 79 72 72 81 95 105 109 113 119 125 124 120 120 125 131
93 58 33 9 358 356 357 1 2 355 350 352 350 351 3 12 10 8 10 9 0 355 359 1 358 358 4 8 5 360 358 358 358 0 2 4 7 10 13 20 28 33 33 31 25 17 10 1 353 2 12 16 29 49 56 55 52 50 46 41 40 47 58 64 67 63 59 66 82 85 78 73 74 82 95 109 122 126 124 124 125 127 128 130 132
105 61 34 2 350 351 358 2 359 359 5 8 7 6 11 11 6 4 13 19 13 359 356 358 356 355 1 8 9 6 1 358 359 1 1 2 6 10 12 15 20 28 36 38 33 26 19 6 351 342 346 354 12 39 53 58 55 49 42 38 38 43 44 41 42 43 38 37 58 85 89 88 89 84 83 93 115 136 139 133 128 130 135 137 139
112 67 37 352 343 354 2 356 354 357 6 15 24 26 19 11 7 7 12 16 15 7 0 357 354 353 356 2 6 8 6 3 2 3 2 1 4 9 12 13 13 20 32 38 37 36 35 29 18 10 12 27 48 57 54 54 49 41 34 28 24 24 23 15 6 5 9 18 43 88 108 110 106 94 89 96 106 119 130 131 127 131 143 151 154
109 68 35 345 342 356 358 351 358 13 18 16 15 13 8 8 14 19 19 18 17 15 10 5 359 355 355 357 2 6 6 4 2 360 358 0 4 7 9 10 12 18 28 35 34 32 33 35 32 26 26 38 63 79 61 49 42 34 26 19 11 9 10 7 355 333 319 332 33 89 114 118 114 121 125 125 123 107 99 119 129 116 105 137 168
116 81 6 329 330 349 4 356 359 9 8 2 3 8 7 3 3 6 11 16 17 15 13 10 4 359 359 359 359 2 2 359 357 354 353 358 3 4 4 6 9 12 20 31 34 28 25 28 30 28 29 38 54 51 22 20 27 24 17 11 4 359 357 356 354 343 320 295 281 267 131 127 138 152 151 156 173 142 118 120 129 113 76 74 148
169 208 298 325 323 322 2 345 343 350 349 346 356 9 10 4 4 3 358 357 360 6 11 9 1 358 1 0 354 353 355 354 353 354 355 359 2 1 360 3 6 7 12 23 29 24 20 21 22 21 24 30 36 30 21 15 8 355 349 346 339 337 340 342 343 353 12 286 275 287 284 252 254 262 253 249 233 183 141 126 130 127 86 60 115
193 218 272 314 317 305 309 317 327 343 343 336 347 359 356 354 4 12 4 356 357 4 9 2 352 352 359 1 354 351 350 349 351 356 358 358 359 356 354 356 1 6 10 14 15 14 13 15 17 17 16 16 17 16 15 11 5 358 351 341 328 322 331 341 348 1 117 189 249 284 295 295 293 293 293 286 254 209 186 167 151 145 110 42 78
198 235 264 286 299 299 310 318 321 324 323 324 333 340 336 332 339 346 347 349 354 0 3 360 354 356 1 1 357 353 347 343 348 353 353 349 346 344 345 349 355 2 4 2 2 3 4 4 8 11 9 6 6 6 3 358 353 351 350 348 340 329 330 342 356 358 278 254 259 276 292 301 305 299 278 258 213 188 179 164 145 143 128 40 28
218 249 249 245 254 279 294 307 315 313 310 313 318 321 322 324 328 329 328 330 338 348 355 357 354 354 356 356 354 350 341 336 339 342 340 338 337 335 337 343 350 353 352 349 350 354 356 354 354 356 354 355 357 359 355 350 346 343 343 346 348 345 340 335 251 250 295 294 289 292 296 305 317 317 223 191 180 178 176 163 138 135 151 58 51
Height
1539 1539 1538 1537 1536 1535 1533 1531 1529 1528 1526 1525 1524 1523 1523 1522 1521 1520 1519 1518 1517 1516 1515 1514 1512 1511 1509 1507 1504 1501 1498 1496 1494 1492 1491 1490 1489 1488 1488 1486 1486 1486 1486 1486 1487 1487 1488 1488 1489 1490 1491 1493 1494 1495 1496 1498 1500 1501 1502 1502 1503 1504 1505 1506 1507 1508 1509 1510 1512 1514 1516 1517 1518 1519 1521 1523 1525 1528 1530 1531 1532 1533 1535 1536 1538
1539 1539 1538 1537 1537 1535 1534 1532 1530 1528 1526 1524 1523 1523 1522 1521 1520 1519 1518 1517 1515 1514 1513 1512 1511 1509 1508 1505 1503 1500 1497 1495 1493 1491 1489 1488 1487 1486 1486 1484 1483 1484 1484 1485 1485 1486 1486 1486 1487 1488 1489 1490 1491 1493 1494 1495 1497 1499 1500 1500 1500 1501 1502 1503 1504 1505 1507 1508 1509 1511 1513 1515 1515 1516 1519 1521 1522 1524 1527 1528 1529 1531 1533 1534 1536
1540 1539 1538 1537 1537 1536 1534 1532 1530 1528 1525 1524 1523 1522 1522 1521 1520 1519 1517 1516 1514 1513 1512 1511 1509 1508 1506 1504 1501 1499 1497 1495 1492 1490 1488 1487 1485 1484 1484 1483 1482 1482 1483 1483 1483 1484 1484 1484 1485 1486 1487 1487 1488 1490 1492 1493 1495 1496 1497 1497 1497 1498 1498 1500 1501 1502 1504 1505 1507 1508 1509 1511 1513 1513 1516 1519 1520 1522 1524 1526 1527 1528 1530 1532 1534
1540 1539 1538 1538 1537 1535 1534 1532 1530 1527 1525 1524 1523 1522 1522 1521 1520 1518 1517 1515 1514 1512 1511 1509 1508 1506 1504 1502 1500 1498 1496 1493 1491 1490 1488 1486 1484 1483 1482 1481 1481 1480 1481 1481 1481 1482 1482 1482 1483 1484 1484 1485 1486 1487 1488 1490 1492 1494 1495 1495 1494 1494 1495 1497 1498 1499 1501 1502 1504 1505 1507 1509 1510 1511 1513 1516 1518 1520 1522 1523 1525 1526 1528 1530 1531
1540 1539 1539 1538 1537 1535 1533 1531 1529 1528 1526 1525 1523 1522 1521 1521 1520 1518 1517 1515 1513 1511 1510 1508 1507 1505 1503 1501 1499 1497 1494 1492 1491 1489 1487 1485 1484 1482 1481 1481 1480 1479 1479 1479 1479 1480 1480 1480 1480 1481 1482 1482 1483 1485 1486 1488 1491 1493 1493 1492 1491 1491 1492 1494 1495 1496 1497 1499 1501 1503 1505 1507 1508 1509 1510 1513 1515 1517 1519 1521 1523 1524 1526 1528 1529
1540 1540 1539 1538 1536 1534 1533 1531 1529 1528 1527 1525 1524 1523 1521 1520 1519 1518 1516 1515 1513 1511 1509 1507 1505 1503 1502 1500 1498 1496 1494 1492 1490 1488 1486 1485 1483 1482 1481 1480 1479 1478 1478 1478 1478 1478 1478 1478 1478 1479 1479 1479 1480 1482 1484 1486 1489 1490 1490 1489 1489 1489 1490 1490 1491 1493 1494 1496 1498 1500 1502 1504 1506 1507 1508 1510 1512 1513 1515 1517 1520 1521 1523 1525 1526
1541 1541 1540 1538 1536 1535 1533 1531 1530 1528 1527 1526 1525 1523 1522 1521 1519 1518 1517 1515 1513 1511 1509 1507 1505 1503 1501 1499 1497 1495 1493 1491 1489 1487 1485 1483 1482 1481 1480 1479 1478 1477 1477 1477 1476 1476 1476 1476 1476 1476 1476 1477 1478 1480 1481 1482 1485 1486 1486 1486 1487 1488 1487 1487 1488 1490 1491 1493 1495 1497 1499 1501 1503 1505 1506 1508 1510 1511 1512 1514 1516 1518 1520 1521 1523
1543 1542 1541 1539 1537 1535 1534 1533 1531 1529 1528 1527 1526 1524 1522 1521 1520 1519 1517 1515 1513 1511 1509 1507 1505 1503 1501 1499 1496 1494 1492 1490 1488 1486 1484 1482 1481 1480 1479 1478 1477 1476 1476 1475 1475 1475 1475 1474 1474 1474 1474 1475 1476 1478 1479 1480 1481 1482 1484 1484 1485 1486 1486 1485 1486 1487 1488 1490 1492 1495 1497 1499 1501 1503 1504 1506 1508 1509 1510 1511 1513 1514 1516 1518 1521
1544 1543 1542 1540 1538 1537 1535 1534 1532 1531 1529 1528 1526 1524 1523 1521 1520 1519 1517 1515 1513 1511 1509 1507 1505 1502 1500 1498 1496 1494 1491 1489 1488 1485 1483 1481 1480 1479 1478 1477 1476 1475 1474 1474 1473 1473 1473 1473 1472 1472 1472 1472 1473 1475 1477 1478 1478 1480 1482 1483 1482 1483 1483 1483 1484 1484 1486 1487 1489 1492 1494 1495 1497 1499 1500 1502 1503 1505 1508 1510 1511 1512 1514 1516 1518
1545 1544 1542 1541 1539 1538 1537 1535 1533 1532 1530 1529 1527 1525 1524 1522 1520 1519 1517 1515 1513 1511 1509 1507 1504 1502 1500 1498 1496 1493 1491 1490 1488 1486 1483 1481 1479 1478 1477 1476 1475 1474 1473 1472 1472 1471 1471 1471 1470 1470 1470 1470 1471 1472 1474 1475 1476 1477 1480 1481 1480 1480 1480 1481 1481 1482 1483 1485 1486 1488 1490 1491 1493 1495 1496 1498 1501 1503 1506 1508 1509 1511 1513 1515 1516
1545 1544 1543 1541 1540 1539 1538 1536 1535 1533 1531 1530 1528 1527 1525 1523 1521 1520 1518 1516 1514 1512 1509 1507 1504 1502 1500 1498 1496 1493 1491 1490 1488 1486 1483 1480 1478 1477 1475 1475 1474 1473 1472 1471 1469 1469 1469 1469 1468 1468 1468 1468 1469 1470 1471 1472 1473 1474 1476 1477 1477 1477 1476 1476 1477 1479 1481 1482 1484 1485 1486 1488 1490 1492 1494 1496 1499 1501 1504 1506 1507 1509 1511 1512 1513
1546 1544 1543 1542 1541 1539 1538 1537 1536 1534 1533 1531 1530 1528 1526 1524 1522 1520 1518 1517 1515 1513 1510 1508 1505 1503 1500 1498 1496 1494 1492 1490 1487 1485 1482 1479 1478 1476 1475 1474 1473 1472 1471 1469 1468 1468 1467 1467 1466 1466 1466 1465 1466 1467 1468 1469 1469 1470 1472 1474 1474 1474 1473 1473 1474 1475 1477 1479 1481 1482 1484 1486 1488 1490 1492 1494 1496 1499 1501 1503 1505 1506 1507 1509 1510
1546 1545 1544 1542 1541 1540 1539 1538 1536 1535 1534 1533 1531 1529 1527 1525 1523 1522 1520 1518 1516 1513 1511 1509 1506 1503 1501 1498 1496 1494 1492 1490 1487 1485 1482 1479 1477 1475 1474 1473 1472 1471 1470 1468 1467 1466 1466 1466 1465 1464 1464 1463 1463 1463 1464 1465 1466 1467 1468 1470 1472 1472 1471 1472 1472 1473 1474 1476 1478 1479 1481 1483 1485 1486 1488 1491 1494 1496 1498 1499 1501 1503 1504 1505 1506
1547 1546 1544 1543 1542 1541 1540 1539 1538 1537 1535 1534 1532 1530 1528 1527 1525 1524 1522 1519 1517 1514 1512 1510 1508 1505 1502 1500 1497 1495 1492 1490 1488 1485 1482 1479 1476 1474 1473 1471 1470 1469 1468 1467 1466 1465 1464 1464 1463 1462 1462 1461 1460 1460 1461 1462 1463 1464 1465 1466 1468 1470 1470 1471 1471 1471 1473 1474 1475 1476 1478 1480 1482 1484 1486 1489 1491 1493 1494 1495 1497 1500 1502 1503 1505
1548 1547 1545 1545 1544 1543 1542 1540 1539 1538 1536 1535 1533 1531 1529 1528 1527 1525 1523 1521 1518 1516 1514 1511 1509 1507 1505 1502 1499 1496 1493 1491 1488 1485 1482 1479 1476 1474 1472 1470 1469 1468 1466 1465 1464 1463 1462 1462 1461 1460 1459 1459 1459 1458 1458 1460 1461 1462 1463 1463 1464 1467 1468 1469 1469 1470 1471 1472 1473 1474 1476 1478 1480 1482 1484 1486 1488 1490 1492 1493 1496 1499 1501 1503 1504
1549 1547 1547 1546 1545 1544 1543 1542 1540 1539 1537 1536 1534 1532 1531 1529 1528 1527 1525 1523 1520 1518 1515 1513 1512 1509 1507 1504 1501 1498 1495 1492 1488 1485 1482 1479 1476 1473 1471 1469 1467 1466 1465 1464 1463 1462 1460 1459 1459 1458 1457 1457 1457 1457 1457 1457 1458 1460 1461 1461 1462 1464 1465 1466 1467 1468 1469 1469 1471 1472 1473 1475 1477 1479 1482 1484 1485 1488 1491 1493 1495 1497 1500 1501 1502
1550 1549 1548 1547 1546 1545 1544 1543 1542 1540 1539 1537 1535 1534 1532 1531 1529 1528 1526 1524 1522 1519 1517 1515 1514 1511 1509 1505 1502 1499 1496 1493 1489 1486 1483 1480 1477 1474 1471 1469 1467 1466 1464 1463 1461 1460 1459 1457 1457 1456 1455 1455 1455 1455 1455 1456 1456 1457 1458 1458 1459 1460 1462 1463 1463 1464 1466 1467 1468 1469 1470 1472 1474 1477 1479 1481 1483 1485 1488 1490 1492 1494 1496 1497 1498
1551 1550 1549 1548 1547 1546 1545 1544 1543 1541 1540 1538 1537 1536 1534 1532 1531 1529 1527 1525 1523 1521 1519 1517 1515 1513 1510 1508 1504 1501 1498 1495 1491 1488 1484 1481 1478 1475 1472 1470 1468 1466 1464 1462 1460 1459 1458 1456 1455 1454 1453 1453 1453 1453 1454 1454 1454 1455 1456 1456 1456 1457 1459 1459 1459 1461 1462 1463 1464 1466 1466 1468 1471 1474 1476 1479 1480 1482 1484 1486 1488 1491 1493 1494 1495
1552 1551 1550 1549 1549 1548 1546 1545 1544 1543 1541 1540 1539 1538 1536 1534 1532 1530 1528 1527 1524 1522 1521 1519 1517 1514 1512 1509 1507 1503 1500 1497 1493 1490 1486 1483 1479 1477 1474 1471 1468 1466 1464 1462 1460 1458 1457 1455 1453 1452 1451 1451 1451 1451 1451 1451 1452 1452 1453 1454 1453 1454 1455 1456 1456 1458 1459 1459 1461 1462 1463 1465 1469 1471 1473 1475 1477 1478 1480 1482 1485 1487 1489 1490 1491
1553 1552 1551 1550 1550 1549 1548 1547 1545 1544 1543 1542 1541 1539 1537 1535 1533 1531 1529 1528 1526 1524 1522 1520 1518 1516 1513 1510 1508 1504 1501 1498 1495 1492 1488 1484 1481 1478 1475 1472 1469 1467 1465 1462 1460 1458 1456 1454 1452 1451 1449 1449 1449 1449 1449 1449 1450 1450 1450 1451 1451 1452 1452 1453 1454 1455 1456 1457 1459 1460 1461 1465 1467 1468 1470 1471 1473 1475 1478 1480 1481 1483 1485 1487 1488
1554 1553 1552 1551 1551 1550 1549 1548 1547 1546 1545 1543 1542 1540 1538 1536 1534 1532 1530 1528 1526 1524 1522 1521 1519 1517 1514 1511 1508 1506 1503 1500 1497 1494 1490 1487 1483 1480 1477 1474 1471 1469 1467 1464 1461 1458 1456 1453 1451 1449 1448 1447 1447 1447 1447 1447 1447 1448 1448 1449 1449 1450 1450 1450 1452 1453 1454 1456 1458 1458 1460 1463 1464 1465 1467 1469 1470 1473 1476 1478 1479 1480 1482 1484 1485
1555 1554 1553 1553 1552 1551 1550 1549 1548 1547 1546 1545 1543 1541 1539 1537 1535 1533 1531 1529 1527 1525 1523 1521 1519 1517 1514 1512 1509 1507 1504 1502 1499 1496 1492 1489 1486 1482 1479 1477 1474 1471 1468 1465 1462 1460 1457 1454 1451 1450 1448 1447 1446 1445 1445 1445 1445 1445 1446 1447 1447 1448 1448 1448 1450 1451 1451 1453 1454 1456 1458 1460 1461 1463 1464 1466 1468 1471 1473 1474 1475 1477 1480 1481 1482
1556 1555 1555 1554 1553 1552 1551 1550 1549 1548 1547 1545 1544 1542 1540 1538 1536 1534 1532 1529 1527 1525 1523 1521 1519 1517 1514 1512 1509 1507 1505 1502 1500 1497 1494 1491 1488 1485 1482 1479 1477 1473 1470 1467 1465 1462 1460 1457 1454 1452 1450 1447 1445 1444 1443 1443 1443 1443 1444 1445 1445 1445 1446 1447 1448 1449 1449 1450 1451 1453 1455 1457 1459 1460 1462 1463 1465 1467 1468 1470 1471 1474 1477 1478 1479
1557 1556 1556 1555 1554 1553 1552 1551 1550 1549 1548 1546 1545 1542 1540 1539 1536 1534 1532 1530 1528 1526 1524 1522 1520 1517 1514 1512 1509 1507 1504 1503 1501 1499 1496 1493 1490 1487 1484 1481 1478 1476 1473 1470 1468 1465 1462 1460 1457 1455 1452 1449 1447 1444 1443 1442 1441 1441 1441 1442 1443 1443 1444 1446 1447 1447 1448 1449 1450 1451 1453 1455 1456 1457 1459 1460 1462 1463 1465 1466 1468 1470 1473 1475 1476
1557 1557 1556 1556 1555 1554 1553 1552 1551 1550 1549 1547 1545 1543 1541 1539 1537 1535 1533 1531 1529 1527 1525 1523 1521 1518 1516 1513 1510 1507 1505 1503 1501 1499 1497 1495 1492 1489 1486 1483 1480 1478 1475 1472 1470 1467 1465 1463 1460 1457 1454 1451 1448 1446 1444 1443 1441 1440 1439 1439 1440 1440 1441 1444 1445 1445 1446 1448 1449 1450 1452 1453 1454 1455 1457 1459 1460 1461 1462 1464 1466 1468 1470 1472 1473
1557 1557 1557 1556 1555 1555 1554 1553 1552 1551 1550 1548 1546 1544 1542 1540 1538 1536 1534 1532 1530 1528 1526 1524 1522 1519 1517 1514 1511 1508 1506 1503 1501 1500 1498 1496 1493 1491 1488 1485 1483 1480 1477 1474 1472 1469 1467 1464 1462 1459 1456 1453 1450 1448 1446 1445 1444 1442 1440 1438 1438 1439 1440 1441 1443 1444 1445 1447 1448 1450 1451 1452 1454 1455 1456 1458 1459 1460 1461 1463 1465 1468 1469 1470 1472
1558 1558 1557 1557 1556 1555 1555 1554 1553 1552 1551 1549 1547 1545 1543 1541 1539 1537 1535 1533 1531 1529 1527 1525 1523 1520 1518 1516 1513 1509 1506 1504 1502 1500 1498 1496 1494 1492 1490 1487 1484 1481 1478 1476 1473 1471 1468 1466 1464 1461 1459 1456 1454 1452 1450 1448 1447 1446 1445 1442 1440 1440 1441 1442 1443 1444 1445 1447 1448 1449 1451 1452 1453 1455 1457 1458 1459 1460 1462 1463 1465 1467 1469 1470 1471
1558 1558 1558 1557 1557 1556 1555 1555 1554 1552 1551 1550 1548 1546 1544 1542 1540 1538 1536 1534 1532 1530 1529 1527 1524 1522 1520 1517 1514 1510 1507 1505 1503 1501 1499 1497 1495 1493 1491 1489 1486 1483 1480 1478 1476 1473 1471 1468 1466 1463 1461 1459 1457 1454 1453 1451 1450 1449 1449 1448 1446 1445 1445 1446 1446 1446 1447 1448 1449 1450 1451 1453 1454 1456 1458 1459 1460 1462 1463 1465 1466 1468 1469 1470 1471
1559 1558 1558 1557 1557 1556 1556 1555 1554 1553 1551 1550 1549 1547 1545 1543 1542 1540 1538 1536 1534 1532 1530 1528 1527 1525 1522 1519 1515 1511 1508 1506 1505 1503 1502 1499 1497 1495 1493 1491 1488 1486 1483 1481 1479 1476 1473 1469 1467 1464 1462 1460 1459 1456 1455 1454 1453 1453 1452 1452 1452 1451 1451 1451 1451 1452 1452 1452 1452 1452 1453 1454 1456 1458 1460 1462 1462 1463 1465 1466 1467 1468 1470 1471 1473
1559 1558 1558 1558 1557 1556 1556 1555 1554 1553 1552 1551 1549 1548 1546 1545 1543 1541 1539 1537 1536 1534 1532 1530 1528 1526 1524 1521 1518 1515 1512 1510 1508 1506 1503 1501 1499 1497 1495 1493 1491 1489 1487 1485 1481 1478 1474 1472 1469 1467 1465 1463 1461 1460 1458 1457 1456 1455 1455 1455 1455 1455 1455 1456 1456 1457 1457 1456 1455 1455 1456 1457 1459 1460 1462 1464 1466 1466 1467 1468 1469 1470 1471 1472 1474
1559 1558 1558 1558 1557 1556 1556 1555 1554 1554 1553 1551 1550 1549 1547 1546 1544 1542 1541 1539 1537 1535 1534 1532 1530 1527 1525 1523 1521 1518 1515 1511 1509 1507 1505 1502 1501 1499 1497 1495 1493 1491 1489 1487 1483 1480 1477 1475 1473 1471 1469 1467 1465 1464 1462 1461 1459 1458 1458 1458 1457 1458 1458 1458 1459 1459 1460 1459 1459 1458 1459 1460 1461 1462 1464 1466 1468 1469 1469 1470 1472 1472 1473 1474 1475
1559 1559 1558 1558 1557 1556 1556 1555 1554 1554 1553 1552 1550 1549 1548 1546 1545 1543 1542 1540 1539 1537 1535 1533 1531 1529 1527 1525 1522 1519 1516 1512 1509 1507 1506 1504 1502 1500 1498 1496 1494 1493 1491 1488 1486 1483 1481 1478 1476 1474 1473 1471 1469 1468 1467 1465 1464 1463 1462 1461 1460 1460 1460 1460 1460 1461 1461 1461 1461 1462 1462 1463 1463 1464 1465 1467 1470 1471 1472 1472 1473 1474 1475 1477 1478
1559 1559 1558 1557 1557 1556 1556 1555 1554 1554 1553 1551 1550 1549 1548 1547 1545 1544 1543 1541 1540 1538 1536 1534 1532 1530 1528 1526 1524 1520 1517 1514 1511 1508 1507 1505 1503 1501 1500 1498 1496 1494 1492 1490 1488 1486 1484 1482 1480 1478 1476 1475 1473 1472 1471 1469 1468 1467 1465 1464 1464 1463 1463 1463 1463 1462 1462 1462 1463 1464 1465 1465 1466 1466 1467 1469 1471 1472 1473 1474 1475 1476 1477 1478 1480
1559 1558 1558 1557 1556 1556 1556 1555 1554 1554 1553 1551 1550 1549 1548 1547 1546 1545 1543 1542 1541 1539 1537 1535 1534 1532 1530 1528 1525 1522 1519 1516 1513 1510 1508 1507 1505 1503 1502 1500 1498 1495 1494 1492 1491 1489 1488 1486 1484 1482 1480 1478 1477 1476 1474 1473 1471 1470 1469 1468 1468 1467 1467 1466 1466 1465 1465 1465 1465 1466 1467 1467 1467 1468 1469 1470 1472 1473 1474 1475 1476 1478 1479 1480 1481
1559 1558 1557 1556 1556 1556 1556 1555 1554 1553 1553 1551 1550 1550 1549 1547 1546 1545 1544 1542 1541 1540 1538 1536 1535 1533 1532 1529 1526 1523 1520 1518 1515 1512 1510 1508 1506 1505 1503 1501 1499 1497 1495 1494 1494 1492 1491 1489 1487 1486 1484 1482 1481 1479 1478 1476 1475 1474 1473 1472 1471 1471 1471 1470 1470 1470 1469 1469 1469 1469 1470 1470 1470 1470 1471 1472 1473 1475 1476 1477 1479 1480 1481 1482 1483
1558 1558 1557 1557 1556 1556 1556 1555 1554 1553 1552 1551 1550 1550 1548 1547 1547 1546 1544 1543 1542 1541 1539 1537 1536 1535 1533 1530 1527 1524 1522 1519 1517 1515 1512 1509 1507 1506 1504 1502 1501 1499 1498 1497 1496 1495 1494 1492 1491 1489 1488 1486 1485 1483 1482 1481 1479 1478 1477 1476 1476 1475 1475 1474 1474 1474 1473 1473 1473 1473 1473 1473 1473 1473 1474 1475 1476 1477 1479 1480 1481 1482 1483 1484 1485
1558 1558 1558 1557 1557 1556 1556 1555 1554 1553 1552 1551 1550 1549 1548 1547 1547 1546 1545 1543 1542 1541 1539 1538 1537 1535 1533 1531 1528 1526 1523 1521 1519 1517 1514 1511 1508 1506 1506 1504 1503 1502 1501 1499 1498 1497 1496 1495 1494 1492 1491 1490 1488 1487 1486 1485 1484 1483 1482 1481 1480 1479 1479 1478 1478 1477 1477 1477 1477 1477 1477 1476 1476 1477 1477 1478 1479 1480 1482 1483 1484 1484 1485 1486 1487
1558 1558 1558 1558 1557 1556 1556 1555 1554 1553 1552 1551 1550 1549 1548 1547 1546 1546 1545 1544 1542 1541 1540 1538 1537 1535 1533 1531 1529 1527 1525 1522 1520 1518 1516 1512 1510 1508 1507 1507 1505 1504 1503 1502 1500 1499 1498 1497 1496 1495 1494 1493 1492 1491 1490 1488 1487 1486 1485 1484 1484 1483 1483 1482 1482 1481 1481 1481 1481 1480 1480 1480 1480 1480 1481 1481 1482 1483 1484 1485 1486 1487 1487 1488 1489
1558 1558 1558 1557 1557 1556 1555 1554 1554 1553 1552 1551 1550 1549 1548 1547 1546 1546 1545 1543 1542 1541 1540 1538 1537 1535 1533 1532 1530 1528 1526 1523 1521 1519 1517 1515 1513 1511 1509 1508 1507 1506 1505 1504 1503 1502 1501 1500 1499 1498 1497 1495 1495 1494 1493 1491 1490 1489 1488 1487 1487 1486 1486 1485 1485 1484 1484 1484 1484 1484 1484 1484 1484 1484 1484 1484 1485 1486 1487 1488 1489 1489 1489 1490 1490
1557 1557 1557 1557 1556 1556 1555 1554 1554 1553 1552 1551 1550 1549 1548 1546 1546 1545 1544 1543 1542 1541 1540 1538 1537 1535 1534 1532 1530 1528 1526 1524 1522 1521 1519 1517 1515 1513 1512 1510 1509 1507 1506 1505 1504 1504 1503 1502 1501 1500 1499 1498 1497 1496 1495 1494 1493 1492 1491 1490 1490 1489 1489 1489 1488 1488 1487 1487 1487 1487 1487 1487 1487 1487 1487 1487 1488 1489 1490 1490 1491 1491 1491 1491 1492
1557 1557 1557 1556 1556 1556 1555 1554 1554 1553 1552 1551 1549 1548 1547 1546 1545 1545 1544 1543 1542 1541 1540 1539 1537 1536 1534 1533 1531 1529 1527 1526 1524 1523 1521 1519 1517 1516 1514 1512 1510 1509 1508 1507 1506 1505 1504 1503 1503 1502 1501 1500 1499 1498 1497 1496 1495 1494 1494 1493 1493 1492 1492 1491 1491 1490 1490 1490 1490 1490 1490 1490 1490 1490 1490 1490 1491 1491 1492 1492 1492 1492 1492 1493 1493
1556 1556 1556 1556 1556 1555 1555 1554 1554 1553 1551 1550 1549 1548 1547 1546 1545 1544 1543 1542 1542 1541 1540 1539 1537 1536 1534 1533 1532 1530 1528 1527 1525 1524 1522 1521 1519 1517 1516 1514 1512 1510 1509 1508 1507 1507 1506 1505 1504 1503 1502 1502 1501 1500 1499 1498 1497 1496 1496 1495 1495 1494 1494 1493 1493 1493 1493 1492 1492 1492 1492 1492 1492 1492 1492 1493 1493 1493 1493 1493 1494 1494 1494 1494 1495
1556 1555 1555 1556 1555 1555 1554 1554 1553 1552 1551 1550 1549 1548 1547 1546 1545 1544 1543 1542 1541 1540 1539 1539 1538 1536 1535 1533 1532 1531 1529 1528 1526 1525 1523 1521 1520 1519 1517 1516 1514 1512 1511 1509 1508 1508 1507 1506 1505 1505 1504 1503 1503 1502 1501 1500 1499 1498 1498 1497 1497 1496 1496 1496 1495 1495 1495 1495 1495 1494 1494 1494 1494 1494 1494 1494 1494 1495 1495 1495 1495 1495 1495 1495 1496
1555 1555 1555 1555 1555 1554 1554 1554 1553 1552 1551 1550 1548 1548 1547 1546 1545 1544 1543 1542 1541 1540 1539 1538 1537 1536 1535 1534 1532 1531 1530 1528 1527 1526 1524 1522 1521 1520 1519 1517 1516 1514 1512 1511 1510 1509 1508 1507 1506 1505 1505 1504 1504 1503 1503 1502 1501 1500 1500 1499 1499 1498 1498 1498 1497 1497 1497 1497 1496 1496 1496 1495 1495 1495 1495 1495 1496 1496 1496 1496 1496 1496 1496 1496 1497
1554 1554 1554 1554 1554 1554 1553 1553 1553 1552 1551 1549 1549 1548 1547 1546 1545 1544 1543 1542 1541 1540 1539 1538 1537 1536 1535 1534 1533 1531 1530 1528 1527 1526 1525 1523 1522 1521 1520 1518 1517 1516 1514 1512 1511 1510 1509 1508 1507 1506 1505 1505 1505 1504 1504 1503 1502 1502 1502 1501 1501 1500 1500 1499 1499 1499 1499 1498 1498 1497 1497 1497 1497 1497 1497 1497 1497 1497 1497 1497 1497 1497 1497 1497 1498
1554 1553 1553 1554 1553 1553 1553 1553 1552 1551 1550 1549 1549 1548 1547 1546 1545 1544 1543 1542 1541 1540 1539 1538 1537 1536 1535 1534 1533 1531 1530 1529 1528 1526 1525 1524 1523 1521 1520 1519 1518 1517 1515 1514 1513 1511 1510 1509 1508 1507 1506 1505 1505 1505 1504 1504 1504 1503 1503 1503 1502 1501 1501 1500 1500 1500 1499 1499 1499 1498 1498 1498 1498 1498 1498 1498 1498 1498 1497 1497 1497 1497 1497 1498 1498
1552 1552 1553 1553 1552 1552 1552 1552 1551 1550 1550 1549 1548 1548 1547 1546 1545 1544 1543 1542 1541 1540 1539 1538 1537 1536 1535 1534 1533 1532 1531 1529 1528 1527 1526 1525 1523 1522 1521 1520 1519 1518 1516 1515 1513 1512 1511 1510 1509 1508 1507 1506 1506 1506 1506 1505 1504 1504 1503 1503 1503 1502 1502 1501 1500 1500 1500 1499 1499 1499 1498 1498 1498 1498 1498 1498 1498 1498 1498 1498 1498 1498 1498 1498 1498
1551 1551 1552 1552 1551 1552 1551 1551 1550 1550 1549 1548 1548 1547 1546 1546 1545 1544 1543 1542 1541 1540 1539 1538 1537 1536 1535 1534 1533 1532 1531 1530 1529 1527 1526 1525 1524 1523 1521 1520 1519 1518 1517 1516 1514 1513 1512 1511 1510 1509 1508 1508 1507 1507 1506 1506 1505 1505 1504 1504 1503 1502 1501 1501 1500 1500 1500 1499 1498 1498 1498 1498 1498 1498 1498 1498 1498 1499 1499 1499 1498 1498 1498 1498 1499
1550 1550 1551 1550 1551 1551 1550 1550 1549 1549 1548 1547 1547 1546 1546 1545 1544 1543 1542 1541 1540 1540 1539 1538 1537 1536 1535 1534 1533 1532 1531 1530 1529 1527 1526 1525 1524 1523 1522 1521 1520 1518 1517 1516 1515 1514 1513 1512 1511 1510 1509 1508 1508 1507 1507 1506 1506 1505 1504 1503 1502 1502 1501 1500 1500 1500 1500 1499 1499 1498 1498 1498 1498 1498 1498 1498 1498 1498 1499 1499 1499 1499 1499 1499 1499
1549 1549 1549 1549 1549 1549 1549 1549 1548 1548 1547 1547 1546 1545 1544 1544 1544 1543 1542 1541 1540 1539 1539 1538 1536 1536 1535 1534 1533 1532 1531 1530 1529 1527 1526 1525 1524 1523 1522 1521 1520 1519 1518 1516 1516 1515 1514 1513 1512 1511 1510 1509 1508 1508 1507 1507 1506 1505 1504 1502 1502 1501 1501 1500 1500 1500 1500 1499 1499 1498 1498 1498 1498 1498 1497 1497 1497 1498 1498 1499 1499 1499 1499 1499 1499
1547 1548 1548 1548 1548 1548 1548 1548 1547 1547 1546 1545 1545 1544 1543 1543 1542 1542 1541 1540 1539 1538 1538 1537 1536 1535 1534 1534 1533 1532 1531 1530 1529 1527 1526 1525 1524 1523 1522 1521 1520 1519 1518 1517 1516 1515 1514 1513 1512 1511 1511 1510 1509 1508 1508 1507 1506 1505 1503 1502 1501 1501 1500 1500 1500 1500 1500 1499 1499 1498 1498 1497 1497 1497 1496 1497 1497 1497 1498 1499 1499 1499 1499 1499 1499